[[{"header":{"parameterUnit":"m.s-1","parameterCategory":1,"la1":30.2991,"la2":30.254,"lo1":-89.0895,"lo2":-89.0444,"dy":0.0017,"dx":0.0017,"nx":28,"ny":28,"refTime":"2023-03-29T21:00:00:Z","depth":0,"parameterNumber":2,"parameterNumberName":"U-component_of_WINDS"},"data":[0,0,0,0,0,0,0,0,0,0,0,0,0,0,0,0,0,0,0,0,0,0,0,0,0,0,0,0,0,0,0,0,0,0,0,0,0,0,0,0,0,0,0,0,0,0,0,0,0,0,0,0,0,0,0,0,0,0,1.6162,1.6162,0,1.6178,1.6178,1.6179,1.6193,1.6194,1.6194,1.6194,1.6207,1.6207,1.6207,0,0,0,0,0,0,0,0,0,0,0,0,0,1.614,1.614,1.6161,1.6162,1.6162,1.6178,1.6178,1.6179,1.6193,1.6194,1.6194,1.6194,1.6206,1.6207,1.6207,0,0,0,0,0,0,0,0,0,0,0,0,0,1.6152,1.614,1.6161,1.6171,1.6173,1.6178,1.6178,1.6179,1.6193,1.6194,1.6194,1.6194,1.6206,1.6207,1.6207,1.6202,0,0,1.6208,1.6208,0,0,0,0,0,0,0,0,1.6151,1.6153,1.617,1.6171,1.6172,1.6184,1.6175,1.6186,1.6193,1.6185,1.6194,1.6194,1.6199,1.6199,1.6202,1.6203,1.6204,1.6208,1.6208,1.6208,1.6208,0,0,0,0,0,0,0,1.615,1.6152,1.6168,1.617,1.6171,1.6174,1.6176,1.6177,1.619,1.6186,1.6187,1.6189,1.6199,1.6201,1.6202,1.6204,1.6208,1.6208,1.6208,1.6208,1.6204,1.6203,0,0,0,0,0,0,1.6149,1.6151,1.6167,1.6168,1.6162,1.6174,1.6177,1.618,1.619,1.6192,1.6189,1.619,1.6201,1.6202,1.6203,1.6199,1.6208,1.6208,1.6208,1.6204,1.6204,1.6203,0,0,0,0,0,0,1.6148,1.615,1.6167,1.616,1.6163,1.6174,1.6178,1.618,1.6182,1.6192,1.6194,1.6189,1.6201,1.6202,1.6203,1.6199,1.6208,1.6208,1.6204,1.6204,1.6204,1.6191,0,0,0,0,0,0,1.6147,1.615,1.6148,1.616,1.6163,1.6168,1.6178,1.618,1.6183,1.6185,1.6193,1.6195,1.6202,1.6203,1.6203,1.62,1.6208,1.6205,1.6204,1.6204,1.6192,1.619,1.6189,0,0,0,0,0,1.6147,1.6143,1.6148,1.615,1.6162,1.6167,1.6169,1.6178,1.6183,1.6182,1.6188,1.6194,1.62,1.6203,1.6203,1.62,1.6205,1.6204,1.6204,1.6192,1.619,1.6189,0,0,0,0,0,0,1.6128,1.6144,1.6151,1.6151,1.6158,1.617,1.6168,1.6176,1.618,1.6181,1.6191,1.6193,1.6192,1.6196,1.6199,1.6197,1.6203,1.6203,1.6194,1.6193,1.6191,1.619,1.6209,0,0,0,0,0,1.6124,1.6129,1.6142,1.6141,1.6144,1.6156,1.6158,1.6166,1.6172,1.6175,1.6181,1.6187,1.619,1.6192,1.6195,1.6193,1.6195,1.6191,1.619,1.6189,1.6188,1.6188,1.6186,1.6202,1.6202,1.6202,0,0,1.6116,1.6125,1.6127,1.6138,1.6144,1.6147,1.6158,1.616,1.6163,1.6175,1.6176,1.6182,1.6188,1.6188,1.6188,1.6191,1.6184,1.6188,1.6187,1.6186,1.6187,1.6185,1.6184,1.6201,1.6201,1.6201,0,0,1.6102,1.611,1.611,1.6117,1.6128,1.6136,1.6136,1.6148,1.6152,1.6155,1.6164,1.6167,1.6172,1.6177,1.618,1.6171,1.6177,1.6172,1.6164,1.6164,1.6163,1.6162,1.6159,1.6157,1.6171,1.6171,1.6171,0,1.6089,1.6096,1.6109,1.6112,1.6117,1.613,1.6131,1.6136,1.6146,1.6149,1.6153,1.6161,1.6166,1.6168,1.6166,1.6168,1.6168,1.617,1.6162,1.6161,1.616,1.6158,1.6156,1.6171,1.6171,1.6171,1.6171,0,1.608,1.6085,1.6084,1.6096,1.6101,1.6102,1.6115,1.6118,1.6125,1.6133,1.6136,1.6143,1.6149,1.615,1.6156,1.6153,1.6155,1.616,1.6167,1.6158,1.6156,1.6155,1.617,1.617,1.617,1.617,0,0,1.6052,1.6074,1.6073,1.608,1.6094,1.6097,1.61,1.6108,1.611,1.6117,1.6119,1.6125,1.6131,1.6135,1.6142,1.6142,1.6135,1.6148,1.6148,1.6145,1.6132,1.6127,1.6126,1.614,1.614,1.614,1.6132,0,1.604,1.6047,1.606,1.6062,1.6067,1.6082,1.6084,1.6093,1.6101,1.6105,1.6113,1.6117,1.6125,1.6127,1.6128,1.6136,1.6133,1.6137,1.6141,1.6141,1.6138,1.6125,1.6119,1.6111,1.6131,1.6131,1.6131,0,1.6026,1.6035,1.6038,1.6054,1.6057,1.6059,1.6068,1.6073,1.6083,1.6089,1.6094,1.6103,1.6106,1.6114,1.6118,1.612,1.6123,1.6128,1.6127,1.6127,1.6134,1.6123,1.6108,1.6107,1.6129,1.6129,1.6129,0,1.6004,1.6018,1.6022,1.6027,1.6046,1.6047,1.6054,1.6065,1.607,1.6078,1.6081,1.6089,1.6092,1.6098,1.6108,1.6112,1.6111,1.6119,1.6115,1.6115,1.6113,1.6113,1.6098,1.6116,1.6116,1.6117,1.6117,0,1.5989,1.599,1.6013,1.6015,1.6018,1.6034,1.6035,1.6044,1.6054,1.6058,1.6071,1.6074,1.6088,1.6093,1.6101,1.6104,1.6105,1.611,1.6112,1.6108,1.6107,1.6109,1.6109,1.6116,1.6116,1.6116,1.6116,0,1.5964,1.598,1.5985,1.6004,1.6009,1.601,1.6025,1.6028,1.6038,1.6043,1.6045,1.606,1.6067,1.6079,1.6088,1.6094,1.6094,1.6098,1.6091,1.6092,1.6088,1.6088,1.6072,1.6071,1.6091,1.6091,1.6091,0,1.5952,1.5954,1.5974,1.5979,1.5987,1.5994,1.6,1.6016,1.6022,1.6035,1.6036,1.6045,1.6052,1.6061,1.6072,1.608,1.6083,1.6078,1.6084,1.6081,1.6083,1.6082,1.6083,1.6075,1.6075,1.6075,1.6075,0,1.5929,1.5938,1.5947,1.5959,1.5967,1.5976,1.5987,1.5989,1.6008,1.6013,1.6022,1.6028,1.6039,1.6046,1.6056,1.6063,1.6071,1.6073,1.6073,1.6068,1.6064,1.6066,1.6086,1.6073,1.6073,1.6073,1.6073,1.6073,1.591,1.5913,1.5929,1.5939,1.595,1.596,1.5964,1.5976,1.5984,1.5996,1.6005,1.6013,1.6025,1.6039,1.6046,1.6051,1.6055,1.6054,1.6054,1.6053,1.6052,1.6065,1.6053,1.6053,1.6053,1.6053,1.6053,0,1.5888,1.59,1.5909,1.5925,1.5933,1.5944,1.5957,1.5962,1.597,1.5981,1.599,1.6,1.6008,1.6021,1.6031,1.6033,1.6037,1.6035,1.6034,1.6035,1.6048,1.6047,1.6031,1.6031,1.6031,1.6031,1.6031,1.6031,1.5877,1.5883,1.5894,1.5906,1.5918,1.5928,1.5934,1.5944,1.5953,1.5965,1.5973,1.5983,1.5995,1.6006,1.6014,1.6018,1.602,1.6016,1.6021,1.6032,1.6034,1.6036,1.6036,1.6017,1.6017,1.6008,1.6008,1.6008]},{"header":{"parameterUnit":"m.s-1","parameterCategory":1,"la1":30.2991,"la2":30.254,"lo1":-89.0895,"lo2":-89.0444,"dy":0.0017,"dx":0.0017,"nx":28,"ny":28,"refTime":"2023-03-29T21:00:00:Z","depth":0,"parameterNumber":3,"parameterNumberName":"V-component_of_WINDS"},"data":[0,0,0,0,0,0,0,0,0,0,0,0,0,0,0,0,0,0,0,0,0,0,0,0,0,0,0,0,0,0,0,0,0,0,0,0,0,0,0,0,0,0,0,0,0,0,0,0,0,0,0,0,0,0,0,0,0,0,-3.9292,-3.9291,0,-3.9223,-3.9222,-3.9221,-3.9164,-3.9163,-3.9162,-3.9162,-3.9088,-3.9086,-3.9085,0,0,0,0,0,0,0,0,0,0,0,0,0,-3.9372,-3.9371,-3.9292,-3.9291,-3.929,-3.9223,-3.9222,-3.9221,-3.9164,-3.9163,-3.9162,-3.9162,-3.9088,-3.9086,-3.9085,0,0,0,0,0,0,0,0,0,0,0,0,0,-3.9324,-3.9371,-3.9292,-3.9254,-3.925,-3.9223,-3.9222,-3.9221,-3.9164,-3.9163,-3.9162,-3.9161,-3.9089,-3.9087,-3.9085,-3.909,0,0,-3.9078,-3.9077,0,0,0,0,0,0,0,0,-3.9327,-3.9321,-3.926,-3.9256,-3.9252,-3.9201,-3.9223,-3.9177,-3.9164,-3.9196,-3.9162,-3.9161,-3.9126,-3.9121,-3.911,-3.9086,-3.9083,-3.9078,-3.9077,-3.9076,-3.9075,0,0,0,0,0,0,0,-3.933,-3.9323,-3.9264,-3.9259,-3.9254,-3.9239,-3.9231,-3.9214,-3.9167,-3.9193,-3.9189,-3.9182,-3.9123,-3.9112,-3.9107,-3.9082,-3.9078,-3.9076,-3.9075,-3.9074,-3.9061,-3.9062,0,0,0,0,0,0,-3.934,-3.9327,-3.9267,-3.9262,-3.9288,-3.9238,-3.923,-3.9218,-3.9167,-3.9158,-3.9183,-3.9179,-3.9116,-3.911,-3.9105,-3.9109,-3.9076,-3.9074,-3.9072,-3.906,-3.9061,-3.9062,0,0,0,0,0,0,-3.9342,-3.9335,-3.9269,-3.9293,-3.9284,-3.9238,-3.9226,-3.9217,-3.9206,-3.9159,-3.915,-3.918,-3.9115,-3.9108,-3.9094,-3.9105,-3.9073,-3.9071,-3.9059,-3.9061,-3.9062,-3.9116,0,0,0,0,0,0,-3.9344,-3.9336,-3.9338,-3.9294,-3.9283,-3.9261,-3.9226,-3.9217,-3.9203,-3.9198,-3.9154,-3.9146,-3.9114,-3.9098,-3.9092,-3.9102,-3.9069,-3.9058,-3.906,-3.9061,-3.9113,-3.9119,-3.9124,0,0,0,0,0,-3.9347,-3.9355,-3.9338,-3.9331,-3.9284,-3.9262,-3.9256,-3.922,-3.9204,-3.9205,-3.9175,-3.9147,-3.9105,-3.9097,-3.909,-3.9099,-3.9057,-3.9059,-3.9061,-3.9111,-3.9118,-3.9124,0,0,0,0,0,0,-3.9399,-3.9348,-3.9329,-3.9323,-3.9298,-3.9252,-3.9253,-3.9228,-3.9206,-3.9202,-3.9157,-3.9148,-3.914,-3.9118,-3.911,-3.9102,-3.9077,-3.9078,-3.9117,-3.9124,-3.9129,-3.9135,-3.9067,0,0,0,0,0,-3.941,-3.9397,-3.9353,-3.9351,-3.934,-3.9299,-3.9288,-3.9262,-3.9234,-3.9222,-3.9191,-3.9164,-3.9145,-3.9133,-3.9112,-3.911,-3.91,-3.9112,-3.9118,-3.9123,-3.9124,-3.9123,-3.9128,-3.9069,-3.9069,-3.9069,0,0,-3.9432,-3.9402,-3.9397,-3.9361,-3.9338,-3.9326,-3.929,-3.9277,-3.9267,-3.922,-3.9207,-3.9183,-3.915,-3.9143,-3.9138,-3.9124,-3.9138,-3.9126,-3.913,-3.9128,-3.9125,-3.9131,-3.9136,-3.9071,-3.907,-3.907,0,0,-3.9466,-3.9442,-3.9439,-3.9418,-3.9385,-3.9358,-3.9357,-3.9316,-3.93,-3.9286,-3.9251,-3.9238,-3.9205,-3.9183,-3.9168,-3.9196,-3.9169,-3.919,-3.9219,-3.9218,-3.9223,-3.9227,-3.9238,-3.9243,-3.9192,-3.9192,-3.9192,0,-3.9497,-3.9477,-3.944,-3.9431,-3.9416,-3.9375,-3.9372,-3.9352,-3.9314,-3.9305,-3.929,-3.925,-3.9224,-3.9212,-3.9219,-3.9208,-3.9206,-3.9195,-3.9226,-3.9229,-3.9232,-3.9242,-3.9247,-3.9195,-3.9194,-3.9194,-3.9194,0,-3.9518,-3.9505,-3.9506,-3.9472,-3.9458,-3.9451,-3.9414,-3.9403,-3.938,-3.9355,-3.9342,-3.931,-3.9283,-3.9278,-3.9254,-3.9263,-3.9256,-3.9234,-3.9208,-3.9241,-3.925,-3.9254,-3.9199,-3.9198,-3.9197,-3.9196,0,0,-3.9581,-3.9529,-3.953,-3.9515,-3.9476,-3.9465,-3.9457,-3.9433,-3.9425,-3.94,-3.9393,-3.9368,-3.9348,-3.9331,-3.9304,-3.9303,-3.9329,-3.9281,-3.928,-3.9292,-3.9338,-3.9356,-3.9361,-3.9311,-3.9312,-3.9312,-3.9342,0,-3.9609,-3.9594,-3.9561,-3.9556,-3.9544,-3.9505,-3.9499,-3.9474,-3.9451,-3.9437,-3.941,-3.9393,-3.9368,-3.9358,-3.9355,-3.9327,-3.9338,-3.9324,-3.9304,-3.9304,-3.9315,-3.9365,-3.9383,-3.9412,-3.9345,-3.9345,-3.9346,0,-3.9639,-3.962,-3.9614,-3.9578,-3.9572,-3.9566,-3.9542,-3.9529,-3.9501,-3.9484,-3.9466,-3.9438,-3.9427,-3.9404,-3.9389,-3.938,-3.937,-3.9355,-3.9355,-3.9353,-3.9327,-3.9365,-3.942,-3.9426,-3.935,-3.935,-3.935,0,-3.9688,-3.9659,-3.9653,-3.9641,-3.9598,-3.9596,-3.9578,-3.9549,-3.9537,-3.9515,-3.9507,-3.9484,-3.9472,-3.9455,-3.9421,-3.9407,-3.9411,-3.9384,-3.9396,-3.9398,-3.9399,-3.94,-3.9455,-3.9392,-3.9392,-3.9391,-3.9391,0,-3.9723,-3.9722,-3.9674,-3.967,-3.9668,-3.963,-3.9628,-3.9606,-3.9581,-3.9572,-3.9536,-3.9529,-3.9484,-3.9471,-3.9444,-3.9437,-3.9431,-3.9417,-3.941,-3.9421,-3.9423,-3.9414,-3.9411,-3.9393,-3.9392,-3.9392,-3.9392,0,-3.9777,-3.9745,-3.9736,-3.9697,-3.9688,-3.9687,-3.9654,-3.9649,-3.9624,-3.9613,-3.9608,-3.9569,-3.9552,-3.9517,-3.9489,-3.9471,-3.9471,-3.9457,-3.9481,-3.9477,-3.9492,-3.9492,-3.9544,-3.955,-3.9482,-3.9483,-3.9483,0,-3.9802,-3.98,-3.9762,-3.9755,-3.9739,-3.9726,-3.9715,-3.9678,-3.9667,-3.9636,-3.9635,-3.9615,-3.9598,-3.9572,-3.9541,-3.952,-3.9507,-3.9527,-3.9503,-3.9515,-3.9509,-3.951,-3.951,-3.9532,-3.9533,-3.9534,-3.9535,0,-3.985,-3.9835,-3.982,-3.9801,-3.9788,-3.977,-3.9751,-3.9746,-3.9705,-3.9694,-3.9677,-3.9664,-3.9638,-3.9619,-3.9594,-3.9575,-3.9548,-3.9543,-3.9545,-3.9556,-3.957,-3.9564,-3.9496,-3.9541,-3.9541,-3.954,-3.954,-3.954,-3.9891,-3.9888,-3.9862,-3.9847,-3.9829,-3.9812,-3.9806,-3.9781,-3.9767,-3.9744,-3.9722,-3.9708,-3.9681,-3.9645,-3.9628,-3.9616,-3.9602,-3.9605,-3.9606,-3.9607,-3.9613,-3.9572,-3.9611,-3.9611,-3.961,-3.961,-3.961,0,-3.9938,-3.992,-3.9907,-3.9882,-3.987,-3.9848,-3.9825,-3.9817,-3.9805,-3.9783,-3.9767,-3.9749,-3.9731,-3.9699,-3.9679,-3.9676,-3.9663,-3.9671,-3.9672,-3.9668,-3.9625,-3.9626,-3.9682,-3.9682,-3.9682,-3.9682,-3.9682,-3.9682,-3.9962,-3.9957,-3.9939,-3.9925,-3.9906,-3.9893,-3.9883,-3.9867,-3.9849,-3.9831,-3.9817,-3.9797,-3.9771,-3.9748,-3.9731,-3.9722,-3.9717,-3.973,-3.9717,-3.9678,-3.9671,-3.9664,-3.9665,-3.9729,-3.9729,-3.9761,-3.9761,-3.9762]}]]